When you browse on this site, cookies collect data to enhance your experience and personalize the content and advertising you see.
Visit our Privacy Policy to learn more. By continuing to use the site, you agree to this use of cookies and data.
  • en Suisse
  • Liste des pays
  • À 7 jours
  • Température de l'eau
  • Carte satellitaire
  • Carte météo
  • Widgets météo
  • user-avatar
    Se connecter

    Météo par heure à Igls

    Ce jour, 24 Mai, Vendredi

    Heure Température Précipitation Vent Pression Humidité
    00:00 +8°C° 0 mm 1 m/s 684 mmHg 87%
    01:00 +8°C° 0 mm 1 m/s 683 mmHg 77%
    02:00 +8°C° 0 mm 1 m/s 683 mmHg 76%
    03:00 +8°C° 0 mm 1 m/s 683 mmHg 74%
    04:00 +7°C° 0 mm 1 m/s 683 mmHg 72%
    05:00 +9°C° 0 mm 1 m/s 683 mmHg 69%
    06:00 +11°C° 0 mm 1 m/s 684 mmHg 66%
    07:00 +13°C° 0 mm 1 m/s 684 mmHg 63%
    08:00 +15°C° 0 mm 1 m/s 684 mmHg 56%
    09:00 +18°C° 0 mm 1 m/s 684 mmHg 49%
    10:00 +20°C° 0 mm 1 m/s 684 mmHg 42%
    11:00 +21°C° 0 mm 1 m/s 684 mmHg 42%
    12:00 +21°C° 0 mm 1 m/s 684 mmHg 41%
    13:00 +21°C° 0 mm 2 m/s 684 mmHg 41%
    14:00 +20°C° 0 mm 2 m/s 684 mmHg 43%
    15:00 +20°C° 0 mm 2 m/s 683 mmHg 46%
    16:00 +20°C° 0 mm 2 m/s 683 mmHg 49%
    17:00 +18°C° 0 mm 2 m/s 683 mmHg 58%
    18:00 +18°C° 0 mm 1 m/s 682 mmHg 66%
    19:00 +15°C° 0 mm 1 m/s 682 mmHg 75%
    20:00 +14°C° 0.1 mm 1 m/s 682 mmHg 80%
    21:00 +12°C° 0.1 mm 1 m/s 682 mmHg 85%
    22:00 +11°C° 0.1 mm 1 m/s 682 mmHg 90%
    23:00 +11°C° 0.1 mm 1 m/s 682 mmHg 90%

    Demain, 25 Mai, Samedi

    Heure Température Précipitation Vent Pression Humidité
    00:00 +11°C° 0.1 mm 1 m/s 682 mmHg 90%
    01:00 +11°C° 0.1 mm 1 m/s 682 mmHg 89%
    02:00 +10°C° 0 mm 1 m/s 682 mmHg 89%
    03:00 +10°C° 0 mm 1 m/s 682 mmHg 89%
    04:00 +9°C° 0 mm 1 m/s 682 mmHg 89%
    05:00 +10°C° 0 mm 0 m/s 682 mmHg 84%
    06:00 +12°C° 0 mm 0 m/s 683 mmHg 78%
    07:00 +14°C° 0 mm 0 m/s 683 mmHg 73%
    08:00 +15°C° 0.1 mm 0 m/s 683 mmHg 69%
    09:00 +18°C° 0.1 mm 1 m/s 683 mmHg 65%
    10:00 +19°C° 0.1 mm 1 m/s 683 mmHg 62%
    11:00 +19°C° 0.4 mm 1 m/s 683 mmHg 64%
    12:00 +19°C° 0.4 mm 1 m/s 683 mmHg 66%
    13:00 +19°C° 0.4 mm 1 m/s 683 mmHg 69%
    14:00 +18°C° 1.1 mm 1 m/s 683 mmHg 75%
    15:00 +16°C° 1.1 mm 1 m/s 683 mmHg 81%
    16:00 +15°C° 1.1 mm 1 m/s 683 mmHg 87%
    17:00 +15°C° 1.7 mm 1 m/s 683 mmHg 90%
    18:00 +14°C° 1.7 mm 1 m/s 682 mmHg 93%
    19:00 +12°C° 1.7 mm 0 m/s 682 mmHg 96%
    20:00 +12°C° 3.2 mm 0 m/s 683 mmHg 96%
    21:00 +12°C° 3.2 mm 1 m/s 683 mmHg 97%
    22:00 +12°C° 3.2 mm 1 m/s 683 mmHg 97%
    23:00 +11°C° 1.5 mm 1 m/s 683 mmHg 97%

    Après-demain, 26 Mai, Dimanche

    Heure Température Précipitation Vent Pression Humidité
    00:00 +10°C° 1.5 mm 0 m/s 683 mmHg 97%
    01:00 +10°C° 1.5 mm 0 m/s 683 mmHg 97%
    02:00 +9°C° 0.2 mm 0 m/s 683 mmHg 97%
    03:00 +9°C° 0.2 mm 0 m/s 683 mmHg 97%
    04:00 +9°C° 0.2 mm 0 m/s 683 mmHg 96%
    05:00 +10°C° 0 mm 0 m/s 683 mmHg 94%
    06:00 +11°C° 0 mm 0 m/s 683 mmHg 92%
    07:00 +12°C° 0 mm 0 m/s 684 mmHg 90%
    08:00 +14°C° 0 mm 1 m/s 684 mmHg 85%
    09:00 +15°C° 0 mm 1 m/s 684 mmHg 81%
    10:00 +16°C° 0 mm 1 m/s 684 mmHg 76%
    11:00 +18°C° 0.1 mm 1 m/s 684 mmHg 72%
    12:00 +19°C° 0.1 mm 1 m/s 684 mmHg 68%
    13:00 +20°C° 0.1 mm 1 m/s 684 mmHg 64%
    14:00 +20°C° 0.2 mm 1 m/s 684 mmHg 66%
    15:00 +19°C° 0.2 mm 2 m/s 684 mmHg 68%
    16:00 +18°C° 0.2 mm 2 m/s 683 mmHg 70%
    17:00 +18°C° 0.5 mm 1 m/s 683 mmHg 77%
    18:00 +16°C° 0.5 mm 1 m/s 683 mmHg 83%
    19:00 +15°C° 0.5 mm 1 m/s 683 mmHg 90%
    20:00 +15°C° 0.5 mm 1 m/s 683 mmHg 92%
    21:00 +13°C° 0.5 mm 0 m/s 683 mmHg 94%
    22:00 +12°C° 0.5 mm 0 m/s 683 mmHg 97%
    23:00 +12°C° 0.5 mm 0 m/s 683 mmHg 97%

    27 Mai, Lundi

    Heure Température Précipitation Vent Pression Humidité
    00:00 +12°C° 0.5 mm 0 m/s 683 mmHg 96%
    01:00 +12°C° 0.5 mm 0 m/s 683 mmHg 96%
    02:00 +12°C° 0.2 mm 0 m/s 682 mmHg 96%
    03:00 +11°C° 0.2 mm 0 m/s 682 mmHg 95%
    04:00 +11°C° 0.2 mm 0 m/s 682 mmHg 95%
    05:00 +13°C° 0.1 mm 1 m/s 682 mmHg 94%
    06:00 +13°C° 0.1 mm 1 m/s 682 mmHg 93%
    07:00 +14°C° 0.1 mm 1 m/s 682 mmHg 92%
    08:00 +15°C° 0.2 mm 1 m/s 682 mmHg 89%
    09:00 +15°C° 0.2 mm 1 m/s 682 mmHg 86%
    10:00 +16°C° 0.2 mm 2 m/s 682 mmHg 84%
    11:00 +17°C° 0.2 mm 2 m/s 682 mmHg 81%
    12:00 +17°C° 0.2 mm 2 m/s 682 mmHg 78%
    13:00 +18°C° 0.2 mm 2 m/s 682 mmHg 76%
    14:00 +18°C° 0.4 mm 2 m/s 681 mmHg 78%
    15:00 +17°C° 0.4 mm 2 m/s 681 mmHg 81%
    16:00 +17°C° 0.4 mm 2 m/s 680 mmHg 83%
    17:00 +16°C° 0.6 mm 1 m/s 680 mmHg 87%
    18:00 +15°C° 0.6 mm 1 m/s 680 mmHg 91%
    19:00 +15°C° 0.6 mm 1 m/s 680 mmHg 94%
    20:00 +14°C° 0.9 mm 1 m/s 680 mmHg 95%
    21:00 +14°C° 0.9 mm 1 m/s 680 mmHg 96%
    22:00 +13°C° 0.9 mm 1 m/s 679 mmHg 97%
    23:00 +13°C° 1.2 mm 1 m/s 679 mmHg 98%

    28 Mai, Mardi

    Heure Température Précipitation Vent Pression Humidité
    00:00 +13°C° 1.2 mm 1 m/s 679 mmHg 98%
    01:00 +12°C° 1.2 mm 1 m/s 678 mmHg 98%
    02:00 +12°C° 1.5 mm 1 m/s 678 mmHg 98%
    03:00 +12°C° 1.5 mm 1 m/s 677 mmHg 98%
    04:00 +12°C° 1.5 mm 1 m/s 677 mmHg 97%
    05:00 +11°C° 1.7 mm 0 m/s 677 mmHg 97%
    06:00 +11°C° 1.7 mm 0 m/s 676 mmHg 96%
    07:00 +11°C° 1.7 mm 0 m/s 676 mmHg 96%
    08:00 +11°C° 1.5 mm 0 m/s 676 mmHg 95%
    09:00 +12°C° 1.5 mm 0 m/s 676 mmHg 94%
    10:00 +12°C° 1.5 mm 0 m/s 676 mmHg 94%
    11:00 +12°C° 1.2 mm 0 m/s 676 mmHg 93%
    12:00 +12°C° 1.2 mm 0 m/s 676 mmHg 93%
    13:00 +14°C° 1.2 mm 1 m/s 676 mmHg 92%
    14:00 +13°C° 0.7 mm 1 m/s 676 mmHg 93%
    15:00 +13°C° 0.7 mm 1 m/s 676 mmHg 94%
    16:00 +13°C° 0.7 mm 2 m/s 676 mmHg 95%
    17:00 +12°C° 1.1 mm 2 m/s 676 mmHg 96%
    18:00 +12°C° 1.1 mm 2 m/s 676 mmHg 97%
    19:00 +10°C° 1.1 mm 2 m/s 676 mmHg 98%
    20:00 +10°C° 1.4 mm 2 m/s 677 mmHg 98%
    21:00 +10°C° 1.4 mm 2 m/s 677 mmHg 98%
    22:00 +9°C° 1.4 mm 2 m/s 677 mmHg 98%
    23:00 +9°C° 2.7 mm 2 m/s 677 mmHg 98%

    29 Mai, Mercredi

    Heure Température Précipitation Vent Pression Humidité
    00:00 +9°C° 2.7 mm 2 m/s 677 mmHg 98%
    01:00 +8°C° 2.7 mm 2 m/s 677 mmHg 99%
    02:00 +8°C° 2.6 mm 2 m/s 677 mmHg 98%
    03:00 +8°C° 2.6 mm 2 m/s 677 mmHg 98%
    04:00 +7°C° 2.6 mm 2 m/s 677 mmHg 98%
    05:00 +7°C° 2.1 mm 2 m/s 677 mmHg 98%
    06:00 +7°C° 2.1 mm 2 m/s 677 mmHg 98%
    07:00 +7°C° 2.1 mm 2 m/s 678 mmHg 98%
    08:00 +7°C° 1.5 mm 2 m/s 678 mmHg 97%
    09:00 +7°C° 1.5 mm 2 m/s 679 mmHg 97%
    10:00 +7°C° 1.5 mm 2 m/s 679 mmHg 96%
    11:00 +8°C° 1.6 mm 2 m/s 680 mmHg 96%
    12:00 +8°C° 1.6 mm 2 m/s 680 mmHg 95%
    13:00 +8°C° 1.6 mm 2 m/s 680 mmHg 95%
    14:00 +8°C° 0.6 mm 2 m/s 680 mmHg 94%
    15:00 +9°C° 0.6 mm 2 m/s 681 mmHg 92%
    16:00 +9°C° 0.6 mm 2 m/s 681 mmHg 91%
    17:00 +9°C° 0.4 mm 2 m/s 681 mmHg 92%
    18:00 +8°C° 0.4 mm 2 m/s 681 mmHg 93%
    19:00 +8°C° 0.4 mm 2 m/s 682 mmHg 94%
    20:00 +7°C° 0.6 mm 2 m/s 682 mmHg 95%
    21:00 +8°C° 0.6 mm 1 m/s 683 mmHg 96%
    22:00 +8°C° 0.6 mm 1 m/s 683 mmHg 97%
    23:00 +7°C° 0.9 mm 1 m/s 684 mmHg 97%
    Voir plus